WRD374 FNUB-FNLU

Flight info

Callsign WRD374
Flight time N/A
Altitude 37000
Route BENGA UJ614 LIRAM/N0365F230 J614 EXALA DCT VBJ DCT VNA
Aircraft B737/M-SDE2E3FGHIRWXY/LB1

Departure

Time N/A
Airport Lubango Mukanka International Airport (FNUB)

Arrival

Time 2026-04-26 13:44
Airport Quatro de Fevereiro International Airport (FNLU)
Time Latitude Longitude Altitude Speed Heading
2026-04-26 13:33 -8.79313 13.50954 8018 ft 260 kts 359°
2026-04-26 13:34 -8.77514 13.50819 7674 ft 254 kts 359°
2026-04-26 13:34 -8.75748 13.50689 7326 ft 254 kts 358°
2026-04-26 13:34 -8.73987 13.50559 6985 ft 254 kts 358°
2026-04-26 13:34 -8.72825 13.50473 6760 ft 250 kts 358°
2026-04-26 13:35 -8.70634 13.50309 6604 ft 222 kts 359°
2026-04-26 13:35 -8.69147 13.50197 6465 ft 205 kts 359°
2026-04-26 13:35 -8.67779 13.50095 6304 ft 191 kts 359°
2026-04-26 13:35 -8.66487 13.49916 6115 ft 188 kts 340°
2026-04-26 13:36 -8.65401 13.49156 6044 ft 195 kts 315°
2026-04-26 13:36 -8.64788 13.47922 5863 ft 204 kts 277°
2026-04-26 13:36 -8.65160 13.46565 5673 ft 200 kts 237°
2026-04-26 13:36 -8.65931 13.45423 5397 ft 194 kts 235°
2026-04-26 13:37 -8.66668 13.44347 5181 ft 184 kts 234°
2026-04-26 13:37 -8.67436 13.43318 4982 ft 180 kts 231°
2026-04-26 13:37 -8.68254 13.42370 4991 ft 179 kts 228°
2026-04-26 13:37 -8.69139 13.41392 4774 ft 188 kts 227°
2026-04-26 13:38 -8.70027 13.40427 4525 ft 186 kts 227°
2026-04-26 13:38 -8.70885 13.39498 4320 ft 176 kts 226°
2026-04-26 13:38 -8.71715 13.38603 4097 ft 175 kts 227°
2026-04-26 13:38 -8.72560 13.37692 3872 ft 178 kts 227°
2026-04-26 13:39 -8.73399 13.36787 3644 ft 179 kts 226°
2026-04-26 13:39 -8.74254 13.35865 3421 ft 175 kts 226°
2026-04-26 13:39 -8.75053 13.35003 3243 ft 159 kts 226°
2026-04-26 13:39 -8.75803 13.34194 3015 ft 155 kts 226°
2026-04-26 13:40 -8.76548 13.33390 2821 ft 158 kts 226°
2026-04-26 13:40 -8.77286 13.32595 2613 ft 151 kts 226°
2026-04-26 13:40 -8.77753 13.32092 2476 ft 146 kts 226°
2026-04-26 13:40 -8.78661 13.31113 2245 ft 140 kts 226°
2026-04-26 13:41 -8.79329 13.30392 2078 ft 141 kts 226°
2026-04-26 13:41 -8.79998 13.29671 1890 ft 139 kts 226°
2026-04-26 13:41 -8.80652 13.28966 1712 ft 136 kts 226°
2026-04-26 13:41 -8.81291 13.28277 1536 ft 132 kts 226°
2026-04-26 13:42 -8.81917 13.27602 1382 ft 135 kts 226°
2026-04-26 13:42 -8.82352 13.27132 1257 ft 137 kts 226°
2026-04-26 13:42 -8.83210 13.26193 957 ft 137 kts 228°
2026-04-26 13:42 -8.83849 13.25506 796 ft 133 kts 230°
2026-04-26 13:43 -8.84480 13.24811 586 ft 135 kts 227°
2026-04-26 13:43 -8.85133 13.24118 401 ft 134 kts 228°
2026-04-26 13:43 -8.85773 13.23429 269 ft 131 kts 228°
2026-04-26 13:43 -8.86328 13.22837 258 ft 96 kts 226°
2026-04-26 13:44 -8.86684 13.22454 258 ft 53 kts 226°
2026-04-26 13:44 -8.86843 13.22262 257 ft 22 kts 264°
2026-04-26 13:44 -8.86806 13.22201 257 ft 7 kts 336°
2026-04-26 13:44 -8.86761 13.22212 257 ft 7 kts 42°
2026-04-26 13:45 -8.86733 13.22252 258 ft 7 kts 48°
2026-04-26 13:45 -8.86711 13.22302 258 ft 8 kts 86°
2026-04-26 13:45 -8.86707 13.22361 258 ft 8 kts 86°
2026-04-26 13:45 -8.86705 13.22401 258 ft 8 kts 86°
2026-04-26 13:46 -8.86681 13.22469 258 ft 8 kts 43°
2026-04-26 13:46 -8.86632 13.22512 259 ft 10 kts 41°
2026-04-26 13:46 -8.86572 13.22566 259 ft 12 kts 42°
2026-04-26 13:46 -8.86513 13.22637 259 ft 14 kts 50°
2026-04-26 13:47 -8.86423 13.22679 258 ft 15 kts
2026-04-26 13:47 -8.86313 13.22682 258 ft 16 kts
2026-04-26 13:47 -8.86213 13.22712 258 ft 15 kts 42°
2026-04-26 13:47 -8.86141 13.22787 258 ft 15 kts 47°
2026-04-26 13:48 -8.86073 13.22860 258 ft 14 kts 46°
2026-04-26 13:48 -8.86008 13.22930 258 ft 13 kts 46°
2026-04-26 13:48 -8.85946 13.22995 258 ft 13 kts 46°
2026-04-26 13:48 -8.85877 13.23049 258 ft 12 kts 22°
2026-04-26 13:49 -8.85792 13.23059 258 ft 12 kts
2026-04-26 13:49 -8.85736 13.23060 258 ft 12 kts
2026-04-26 13:49 -8.85627 13.23062 258 ft 12 kts
2026-04-26 13:49 -8.85548 13.23068 258 ft 11 kts
2026-04-26 13:50 -8.85471 13.23070 259 ft 11 kts 360°
2026-04-26 13:50 -8.85396 13.23071 259 ft 11 kts
2026-04-26 13:50 -8.85348 13.23073 260 ft 10 kts
2026-04-26 13:50 -8.85253 13.23075 259 ft 10 kts
2026-04-26 13:51 -8.85207 13.23076 259 ft 10 kts
2026-04-26 13:51 -8.85122 13.23095 259 ft 10 kts 38°
2026-04-26 13:51 -8.85083 13.23148 259 ft 9 kts 58°
2026-04-26 13:51 -8.85070 13.23181 259 ft 1 kts 86°
2026-04-26 13:52 -8.85080 13.23197 259 ft 3 kts 139°
2026-04-26 13:52 -8.85093 13.23203 259 ft 3 kts 155°
2026-04-26 13:52 -8.85113 13.23212 259 ft 3 kts 155°
2026-04-26 13:52 -8.85132 13.23221 259 ft 3 kts 155°
2026-04-26 13:53 -8.85143 13.23225 259 ft 0 kts 157°